[[{"header":{"parameterUnit":"m.s-1","parameterCategory":1,"la1":30.2991,"la2":30.254,"lo1":-89.0895,"lo2":-89.0444,"dy":0.0017,"dx":0.0017,"nx":28,"ny":28,"refTime":"2023-11-02T09:00:00:Z","depth":0,"parameterNumber":2,"parameterNumberName":"U-component_of_WINDS"},"data":[0,0,0,0,0,0,0,0,0,0,0,0,0,0,0,0,0,0,0,0,0,0,0,0,0,0,0,0,0,0,0,0,0,0,0,0,0,0,0,0,0,0,0,0,0,0,0,0,0,0,0,0,0,0,0,0,0,0,-3.902,-3.902,0,-3.9088,-3.9089,-3.909,-3.8975,-3.8971,-3.8968,-3.8964,-3.9031,-3.9037,-3.9042,0,0,0,0,0,0,0,0,0,0,0,0,0,-3.8786,-3.879,-3.9019,-3.902,-3.9021,-3.9088,-3.9089,-3.909,-3.8976,-3.8971,-3.8967,-3.8962,-3.903,-3.9036,-3.9043,0,0,0,0,0,0,0,0,0,0,0,0,0,-3.8874,-3.8792,-3.9019,-3.8972,-3.8969,-3.9088,-3.9089,-3.909,-3.8977,-3.8971,-3.8965,-3.896,-3.9028,-3.9035,-3.9043,-3.9211,0,0,-3.9068,-3.9072,0,0,0,0,0,0,0,0,-3.8869,-3.8883,-3.8978,-3.8976,-3.8972,-3.9017,-3.9031,-3.9131,-3.8979,-3.8974,-3.8964,-3.8957,-3.9031,-3.9039,-3.9064,-3.9214,-3.9217,-3.9069,-3.9074,-3.9078,-3.908,0,0,0,0,0,0,0,-3.8863,-3.8879,-3.9047,-3.898,-3.8976,-3.8947,-3.8953,-3.905,-3.9034,-3.8974,-3.8966,-3.8976,-3.9028,-3.9057,-3.9065,-3.9218,-3.9069,-3.9076,-3.9081,-3.9084,-3.9507,-3.9513,0,0,0,0,0,0,-3.8863,-3.8875,-3.9044,-3.9049,-3.8905,-3.8956,-3.8963,-3.9009,-3.9033,-3.9031,-3.8981,-3.897,-3.9046,-3.9056,-3.9067,-3.9264,-3.9077,-3.9085,-3.909,-3.9501,-3.9508,-3.9515,0,0,0,0,0,0,-3.8859,-3.888,-3.9042,-3.896,-3.8978,-3.8966,-3.9019,-3.9013,-3.9041,-3.9038,-3.9034,-3.9013,-3.9042,-3.9056,-3.9176,-3.9264,-3.9089,-3.9096,-3.9493,-3.9503,-3.9512,-3.9659,0,0,0,0,0,0,-3.8853,-3.8879,-3.8943,-3.8962,-3.8983,-3.9151,-3.9024,-3.9019,-3.9056,-3.9043,-3.9067,-3.9066,-3.9038,-3.9164,-3.9184,-3.9273,-3.9103,-3.9485,-3.9497,-3.9509,-3.9646,-3.9673,-3.9695,0,0,0,0,0,-3.8845,-3.8981,-3.8947,-3.8968,-3.9063,-3.9156,-3.9168,-3.9134,-3.9064,-3.9128,-3.9125,-3.9065,-3.9252,-3.9178,-3.9199,-3.9291,-3.9479,-3.9494,-3.9508,-3.9635,-3.9667,-3.9695,0,0,0,0,0,0,-3.8972,-3.8983,-3.8945,-3.9092,-3.9124,-3.9137,-3.9216,-3.9169,-3.9221,-3.9207,-3.9162,-3.9168,-3.9298,-3.9306,-3.9223,-3.9454,-3.9354,-3.9373,-3.9443,-3.9474,-3.9498,-3.9492,-3.9109,0,0,0,0,0,-3.9017,-3.9093,-3.9098,-3.9227,-3.9245,-3.9229,-3.9268,-3.9239,-3.927,-3.9283,-3.9289,-3.9321,-3.9386,-3.9431,-3.9491,-3.9647,-3.965,-3.9721,-3.9745,-3.9765,-3.9782,-3.9865,-3.9896,-3.9562,-3.9562,-3.9562,0,0,-3.9111,-3.9126,-3.9177,-3.9253,-3.9275,-3.9353,-3.9241,-3.9328,-3.9385,-3.9296,-3.941,-3.9416,-3.9448,-3.9587,-3.9648,-3.9598,-3.9875,-3.9784,-3.98,-3.9806,-3.9883,-3.9914,-3.9942,-3.9572,-3.957,-3.9568,0,0,-3.9322,-3.9342,-3.9452,-3.9476,-3.951,-3.9498,-3.9525,-3.9545,-3.9546,-3.966,-3.9594,-3.9661,-3.9775,-3.98,-3.9828,-4.005,-3.9996,-4.0071,-4.0197,-4.0278,-4.0305,-4.0328,-4.0406,-4.0434,-4.0088,-4.0088,-4.0088,0,-3.9434,-3.9551,-3.9513,-3.9606,-3.9641,-3.9565,-3.9674,-3.9699,-3.9752,-3.9777,-3.972,-3.9862,-3.9878,-4.0022,-4.0076,-4.0101,-4.0129,-4.0067,-4.0304,-4.0327,-4.0348,-4.0422,-4.0451,-4.0097,-4.0096,-4.0095,-4.0094,0,-3.9686,-3.9768,-3.9852,-3.9906,-3.995,-4.0051,-4.0028,-4.0077,-4.0045,-4.0039,-4.0155,-4.0172,-4.0235,-4.0267,-4.0236,-4.0406,-4.0373,-4.0312,-4.021,-4.0389,-4.0458,-4.0486,-4.0109,-4.0106,-4.0104,-4.0101,0,0,-3.9979,-4.0011,-4.0042,-4.0065,-4.0098,-4.016,-4.0257,-4.0319,-4.0362,-4.04,-4.0479,-4.0578,-4.0521,-4.0553,-4.0524,-4.0595,-4.0768,-4.0524,-4.0524,-4.0568,-4.0956,-4.1002,-4.1035,-4.0733,-4.0738,-4.0742,-4.0953,0,-4.0188,-4.0356,-4.0326,-4.0489,-4.0564,-4.0493,-4.0577,-4.0605,-4.0602,-4.0664,-4.0659,-4.073,-4.0649,-4.0668,-4.0736,-4.0733,-4.0845,-4.0718,-4.0805,-4.0809,-4.0798,-4.1071,-4.112,-4.1317,-4.0979,-4.0984,-4.0987,0,-4.0455,-4.0504,-4.0676,-4.0697,-4.0726,-4.0803,-4.0857,-4.0917,-4.0948,-4.094,-4.0977,-4.0934,-4.1029,-4.0928,-4.1057,-4.0971,-4.1005,-4.1009,-4.1016,-4.1022,-4.0908,-4.1083,-4.138,-4.1409,-4.1029,-4.1026,-4.1023,0,-4.065,-4.0759,-4.0876,-4.0898,-4.0925,-4.0981,-4.0994,-4.1019,-4.1058,-4.1105,-4.113,-4.1187,-4.1218,-4.1263,-4.1237,-4.1165,-4.1371,-4.1267,-4.1366,-4.1367,-4.1412,-4.1409,-4.1717,-4.1436,-4.1436,-4.1435,-4.1434,0,-4.0886,-4.0993,-4.0964,-4.1036,-4.1153,-4.1117,-4.1234,-4.1239,-4.1262,-4.1332,-4.1274,-4.1341,-4.1303,-4.1367,-4.1347,-4.1457,-4.1471,-4.1467,-4.146,-4.1472,-4.1472,-4.1492,-4.1478,-4.1443,-4.1441,-4.144,-4.1438,0,-4.1123,-4.1108,-4.123,-4.1247,-4.1253,-4.1339,-4.1352,-4.1418,-4.1411,-4.1501,-4.152,-4.1508,-4.158,-4.1558,-4.1636,-4.1622,-4.1762,-4.1738,-4.1752,-4.1745,-4.1846,-4.1836,-4.2176,-4.2218,-4.1912,-4.1915,-4.1917,0,-4.1275,-4.1356,-4.1381,-4.1425,-4.1443,-4.1514,-4.1554,-4.1521,-4.1565,-4.1606,-4.1667,-4.1734,-4.1786,-4.1904,-4.1901,-4.196,-4.1937,-4.2052,-4.1945,-4.1954,-4.1937,-4.1932,-4.1939,-4.2073,-4.2076,-4.2079,-4.2082,0,-4.1545,-4.1533,-4.1594,-4.1652,-4.1701,-4.1745,-4.1784,-4.1822,-4.1792,-4.1844,-4.1917,-4.1958,-4.2037,-4.2104,-4.2158,-4.217,-4.2121,-4.2116,-4.2141,-4.2153,-4.2158,-4.2156,-4.1809,-4.2107,-4.2105,-4.2103,-4.2102,-4.2101,-4.1743,-4.1811,-4.184,-4.1909,-4.1935,-4.1972,-4.2035,-4.2036,-4.2097,-4.216,-4.2137,-4.2221,-4.2249,-4.2316,-4.2335,-4.24,-4.2355,-4.2393,-4.2403,-4.2412,-4.2424,-4.2149,-4.241,-4.2409,-4.2408,-4.2407,-4.2407,0,-4.2009,-4.2024,-4.2088,-4.2144,-4.2198,-4.2149,-4.2188,-4.2236,-4.2312,-4.2343,-4.2395,-4.2479,-4.2544,-4.2547,-4.2607,-4.2658,-4.2637,-4.2675,-4.267,-4.2674,-4.2461,-4.2432,-4.2691,-4.2691,-4.2691,-4.2691,-4.2691,-4.2691,-4.2153,-4.2267,-4.2259,-4.2384,-4.2397,-4.248,-4.2507,-4.2541,-4.2565,-4.2662,-4.2716,-4.2718,-4.2737,-4.2799,-4.2855,-4.2854,-4.2879,-4.2925,-4.2916,-4.2717,-4.2689,-4.2662,-4.2634,-4.2931,-4.2931,-4.3122,-4.3124,-4.3125]},{"header":{"parameterUnit":"m.s-1","parameterCategory":1,"la1":30.2991,"la2":30.254,"lo1":-89.0895,"lo2":-89.0444,"dy":0.0017,"dx":0.0017,"nx":28,"ny":28,"refTime":"2023-11-02T09:00:00:Z","depth":0,"parameterNumber":3,"parameterNumberName":"V-component_of_WINDS"},"data":[0,0,0,0,0,0,0,0,0,0,0,0,0,0,0,0,0,0,0,0,0,0,0,0,0,0,0,0,0,0,0,0,0,0,0,0,0,0,0,0,0,0,0,0,0,0,0,0,0,0,0,0,0,0,0,0,0,0,-3.7173,-3.7173,0,-3.7151,-3.715,-3.715,-3.7085,-3.7084,-3.7083,-3.7081,-3.7056,-3.7057,-3.7057,0,0,0,0,0,0,0,0,0,0,0,0,0,-3.7157,-3.7158,-3.7174,-3.7173,-3.7173,-3.7151,-3.715,-3.715,-3.7086,-3.7084,-3.7082,-3.7081,-3.7056,-3.7057,-3.7057,0,0,0,0,0,0,0,0,0,0,0,0,0,-3.7152,-3.7158,-3.7174,-3.7138,-3.7135,-3.7151,-3.715,-3.715,-3.7086,-3.7084,-3.7082,-3.708,-3.7056,-3.7057,-3.7058,-3.7106,0,0,-3.706,-3.7061,0,0,0,0,0,0,0,0,-3.7153,-3.7153,-3.7144,-3.7141,-3.7137,-3.7119,-3.7135,-3.7135,-3.7086,-3.7104,-3.7081,-3.7079,-3.7079,-3.7077,-3.7078,-3.7104,-3.7103,-3.7061,-3.7061,-3.7062,-3.7062,0,0,0,0,0,0,0,-3.7153,-3.7154,-3.7164,-3.7144,-3.7139,-3.7122,-3.7119,-3.7135,-3.7103,-3.7103,-3.7098,-3.7096,-3.7076,-3.7077,-3.7077,-3.7103,-3.706,-3.7061,-3.7062,-3.7062,-3.7163,-3.7165,0,0,0,0,0,0,-3.7159,-3.7154,-3.7165,-3.7164,-3.714,-3.7124,-3.7121,-3.7127,-3.7103,-3.7098,-3.7098,-3.7093,-3.7076,-3.7076,-3.7076,-3.7127,-3.7062,-3.7062,-3.7063,-3.7161,-3.7163,-3.7166,0,0,0,0,0,0,-3.7159,-3.7161,-3.7166,-3.7158,-3.7157,-3.7127,-3.7134,-3.7127,-3.7128,-3.71,-3.7093,-3.7105,-3.7075,-3.7074,-3.7098,-3.7125,-3.7063,-3.7064,-3.7158,-3.7162,-3.7165,-3.7232,0,0,0,0,0,0,-3.7159,-3.7161,-3.718,-3.7159,-3.7158,-3.719,-3.7136,-3.7128,-3.713,-3.7124,-3.7104,-3.7099,-3.7073,-3.7097,-3.7099,-3.7125,-3.7064,-3.7156,-3.716,-3.7164,-3.7227,-3.7237,-3.7246,0,0,0,0,0,-3.7158,-3.7201,-3.7181,-3.7183,-3.7181,-3.7192,-3.7191,-3.7161,-3.7133,-3.715,-3.7132,-3.71,-3.7122,-3.71,-3.7101,-3.7129,-3.7154,-3.7159,-3.7163,-3.7223,-3.7235,-3.7246,0,0,0,0,0,0,-3.7226,-3.7197,-3.7176,-3.7212,-3.7205,-3.7181,-3.7203,-3.7175,-3.7175,-3.7169,-3.7131,-3.7127,-3.7155,-3.7144,-3.712,-3.7172,-3.7133,-3.7138,-3.7177,-3.7189,-3.7198,-3.7199,-3.7065,0,0,0,0,0,-3.7246,-3.7258,-3.7231,-3.7266,-3.7263,-3.7234,-3.7237,-3.7214,-3.7205,-3.7201,-3.7184,-3.7176,-3.718,-3.7184,-3.7187,-3.7226,-3.7219,-3.7245,-3.7255,-3.7262,-3.7267,-3.7282,-3.7293,-3.7181,-3.7181,-3.7181,0,0,-3.7285,-3.7271,-3.7281,-3.7279,-3.7271,-3.7282,-3.7232,-3.7247,-3.7254,-3.7203,-3.7224,-3.7211,-3.7198,-3.7229,-3.7241,-3.7221,-3.7296,-3.7268,-3.7275,-3.7275,-3.7288,-3.7299,-3.7308,-3.7184,-3.7184,-3.7183,0,0,-3.7363,-3.7355,-3.7381,-3.7373,-3.7361,-3.734,-3.7347,-3.7326,-3.7315,-3.7335,-3.7296,-3.7304,-3.7314,-3.7306,-3.7303,-3.7374,-3.7343,-3.7376,-3.7424,-3.7439,-3.7448,-3.7456,-3.7478,-3.7487,-3.7381,-3.7381,-3.7382,0,-3.7414,-3.743,-3.7398,-3.7414,-3.7413,-3.7368,-3.7392,-3.7386,-3.7376,-3.7375,-3.7353,-3.7362,-3.7351,-3.7376,-3.7393,-3.7394,-3.7397,-3.7378,-3.745,-3.7457,-3.7463,-3.7484,-3.7493,-3.7385,-3.7385,-3.7384,-3.7384,0,-3.7491,-3.7503,-3.7526,-3.7516,-3.7517,-3.7538,-3.7507,-3.7513,-3.7489,-3.747,-3.7489,-3.7474,-3.7471,-3.7476,-3.7454,-3.7497,-3.7485,-3.7457,-3.7416,-3.7478,-3.7497,-3.7505,-3.7391,-3.7389,-3.7388,-3.7387,0,0,-3.7611,-3.7581,-3.759,-3.7583,-3.7565,-3.7573,-3.759,-3.7588,-3.7591,-3.7585,-3.7597,-3.7605,-3.7578,-3.7575,-3.7551,-3.7565,-3.7618,-3.7534,-3.7533,-3.7548,-3.7661,-3.768,-3.769,-3.7598,-3.76,-3.7601,-3.7661,0,-3.7682,-3.7711,-3.7681,-3.7715,-3.7723,-3.7679,-3.7693,-3.7683,-3.7666,-3.7669,-3.765,-3.7655,-3.7621,-3.7617,-3.763,-3.7609,-3.764,-3.7605,-3.7606,-3.7606,-3.7608,-3.77,-3.7721,-3.7779,-3.7668,-3.767,-3.767,0,-3.7769,-3.7765,-3.78,-3.7776,-3.7778,-3.7792,-3.7785,-3.7791,-3.7777,-3.7763,-3.7758,-3.7728,-3.7741,-3.7703,-3.7719,-3.7696,-3.7695,-3.7684,-3.7686,-3.7683,-3.7641,-3.7697,-3.7797,-3.7804,-3.7682,-3.7681,-3.768,0,-3.7848,-3.7852,-3.7872,-3.7869,-3.7843,-3.7853,-3.7842,-3.7826,-3.7826,-3.782,-3.7818,-3.7814,-3.7811,-3.7808,-3.7777,-3.7753,-3.7795,-3.7755,-3.7781,-3.7782,-3.7791,-3.779,-3.7889,-3.7795,-3.7795,-3.7795,-3.7794,0,-3.7929,-3.7951,-3.7907,-3.792,-3.7942,-3.7907,-3.7929,-3.7914,-3.79,-3.7907,-3.7869,-3.7876,-3.7836,-3.7839,-3.7815,-3.7829,-3.7829,-3.7816,-3.7809,-3.7818,-3.7819,-3.7815,-3.7809,-3.7797,-3.7796,-3.7796,-3.7796,0,-3.8021,-3.7993,-3.8011,-3.7985,-3.7979,-3.7996,-3.7972,-3.7981,-3.7961,-3.797,-3.797,-3.7938,-3.7938,-3.7907,-3.7902,-3.7885,-3.7909,-3.7896,-3.7914,-3.7908,-3.7935,-3.7931,-3.8032,-3.8042,-3.7945,-3.7946,-3.7947,0,-3.8072,-3.8088,-3.8063,-3.8064,-3.8056,-3.806,-3.8058,-3.8023,-3.8023,-3.8007,-3.8017,-3.8014,-3.801,-3.8012,-3.7987,-3.7981,-3.7966,-3.8002,-3.7965,-3.7972,-3.7962,-3.7961,-3.796,-3.8009,-3.801,-3.8011,-3.8012,0,-3.8166,-3.8151,-3.8151,-3.8145,-3.8144,-3.8138,-3.8129,-3.8132,-3.8094,-3.8095,-3.8095,-3.8091,-3.8084,-3.8081,-3.807,-3.8058,-3.8027,-3.8024,-3.8029,-3.8037,-3.8045,-3.8037,-3.7931,-3.8021,-3.802,-3.8019,-3.8019,-3.8019,-3.8237,-3.8248,-3.823,-3.823,-3.822,-3.8212,-3.8218,-3.8198,-3.8197,-3.8189,-3.8168,-3.817,-3.8153,-3.8135,-3.8125,-3.8125,-3.8107,-3.8115,-3.8117,-3.8118,-3.8122,-3.8047,-3.8123,-3.8123,-3.8123,-3.8122,-3.8122,0,-3.8326,-3.8312,-3.8313,-3.8301,-3.83,-3.8272,-3.826,-3.8261,-3.8263,-3.825,-3.8246,-3.8244,-3.824,-3.8214,-3.8206,-3.8211,-3.8196,-3.821,-3.8207,-3.8204,-3.8141,-3.8135,-3.8221,-3.8221,-3.8221,-3.8221,-3.8221,-3.8221,-3.8372,-3.8387,-3.8369,-3.8378,-3.8363,-3.8365,-3.836,-3.8352,-3.834,-3.8339,-3.8336,-3.8319,-3.83,-3.829,-3.8284,-3.8276,-3.8274,-3.8291,-3.8278,-3.8219,-3.8209,-3.82,-3.8195,-3.8292,-3.8292,-3.8341,-3.8342,-3.8342]}]]